Hickory, NC

2:08 AM EDT on May 29, 2017 (GMT -0400)
Hickory Regional

Weather History for KHKY - November, 2010

Change the Weather History Date:

Sunday, November 28, 2010

  Actual Average Record
Temperature  
Mean Temperature 38 °F -  
Max Temperature 48 °F 57 °F 74 °F (1970)
Min Temperature 27 °F 40 °F 19 °F (2002)
Degree Days  
Heating Degree Days 28    
Moisture  
Dew Point 25 °F    
Average Humidity 65    
Maximum Humidity 92    
Minimum Humidity 36    
Precipitation  
Precipitation 0.00 in - - ()
Sea Level Pressure  
Sea Level Pressure 30.30 in    
Wind  
Wind Speed 2 mph (NE)    
Max Wind Speed 6 mph    
Max Gust Speed -    
Visibility 10 miles    
Events      
Averages and records for this station are not official NWS values.
T = Trace of Precipitation, MM = Missing Value Source: NWS Daily Summary

Daily Weather History Graph

Daily Weather History Graph

Search for Another Location

Airport or City:

Trip Planner

Search our weather history database for the weather conditions in past years. The results will help you decide how hot, cold, wet, or windy it might be!

Date:

Astronomy

Nov. 28, 2010 Rise Set
Actual Time 7:14 AM EST 5:12 PM EST
Civil Twilight 6:46 AM EST 5:40 PM EST
Nautical Twilight 6:14 AM EST 6:12 PM EST
Astronomical Twilight 5:44 AM EST 6:42 PM EST
Moon No Moon Rise 12:30 PM EST (11/28)
Length of Visible Light 10h 54m
Length of Day
9h 58m
Waning Gibbous, 52% of the Moon is Illuminated
Nov 28
Waning Gibbous
Nov 28
Last Quarter
Dec 5
New
Dec 13
First Quarter
Dec 21
Full

Hourly Weather History & Observations

Time (EST) Temp. Windchill Dew Point Humidity Pressure Visibility Wind Dir Wind Speed Gust Speed Precip Events Conditions
12:53 AM 35.1 °F 32.2 °F 24.1 °F 64% 30.16 in 10.0 mi NE 3.5 mph - N/A   Clear
1:53 AM 30.9 °F - 24.1 °F 76% 30.19 in 10.0 mi Calm Calm - N/A   Clear
2:53 AM 28.9 °F - 23.0 °F 78% 30.21 in 10.0 mi Calm Calm - N/A   Unknown
3:53 AM 30.0 °F 25.2 °F 23.0 °F 75% 30.22 in 10.0 mi ENE 4.6 mph - N/A   Clear
4:53 AM 28.0 °F - 23.0 °F 81% 30.24 in 10.0 mi Calm Calm - N/A   Unknown
5:53 AM 27.0 °F - 24.1 °F 89% 30.27 in 10.0 mi Calm Calm - N/A   Unknown
6:53 AM 27.0 °F - 23.0 °F 85% 30.29 in 10.0 mi Calm Calm - N/A   Clear
7:53 AM 27.0 °F - 23.0 °F 85% 30.31 in 10.0 mi Calm Calm - N/A   Clear
8:53 AM 32.0 °F - 27.0 °F 82% 30.33 in 10.0 mi Calm Calm - N/A   Clear
9:53 AM 37.0 °F 32.4 °F 27.0 °F 67% 30.35 in 10.0 mi North 5.8 mph - N/A   Clear
10:53 AM 41.0 °F 39.0 °F 24.1 °F 51% 30.36 in 10.0 mi Variable 3.5 mph - N/A   Clear
11:53 AM 44.1 °F 40.8 °F 23.0 °F 43% 30.34 in 10.0 mi Variable 5.8 mph - N/A   Clear
12:53 PM 45.0 °F 43.5 °F 21.9 °F 40% 30.32 in 10.0 mi ENE 3.5 mph - N/A   Unknown
1:53 PM 46.0 °F 43.9 °F 24.1 °F 42% 30.30 in 10.0 mi Variable 4.6 mph - N/A   Clear
2:53 PM 48.0 °F - 21.9 °F 36% 30.29 in 10.0 mi Variable 3.5 mph - N/A   Clear
3:53 PM 46.9 °F - 21.9 °F 37% 30.29 in 10.0 mi Variable 3.5 mph - N/A   Clear
4:53 PM 44.1 °F - 23.0 °F 43% 30.31 in 10.0 mi Calm Calm - N/A   Clear
5:53 PM 41.0 °F - 24.1 °F 51% 30.33 in 10.0 mi Calm Calm - N/A   Clear
6:53 PM 41.0 °F - 24.1 °F 51% 30.34 in 10.0 mi Calm Calm - N/A   Clear
7:53 PM 39.0 °F - 24.1 °F 55% 30.35 in 10.0 mi Calm Calm - N/A   Clear
8:53 PM 36.0 °F - 30.0 °F 79% 30.36 in 10.0 mi Calm Calm - N/A   Clear
9:53 PM 34.0 °F 31.0 °F 30.0 °F 85% 30.36 in 10.0 mi NE 3.5 mph - N/A   Clear
10:53 PM 30.9 °F - 28.9 °F 92% 30.36 in 8.0 mi Calm Calm - N/A   Clear
11:53 PM 30.9 °F - 26.1 °F 82% 30.36 in 10.0 mi Calm Calm - N/A   Clear